Location: Azul
(36.7830°S, 59.8500°W)
Time: 12:31:57
(UTC-03:00)

ISS - Pass Details

Date: 19 February 2018
Orbit: 403 x 406 km, 51.6° (Epoch: 26 February)

Event Time Altitude Azimuth Distance (km) Brightness Sun altitude
Rises 21:23:33 0° 315° (NW) 2,325 0.2 -18.0°
Reaches altitude 10° 21:25:38 10° 317° (NW) 1,472 -0.8 -18.4°
Maximum altitude 21:28:55 77° 42° (NE) 428 -4.0 -18.9°
Enters shadow 21:29:05 74° 78° (ENE) 434 -4.0 -19.0°
